This is the latest recevied weather packets stored in our database for station/object K1BES. If no packets are shown the sender has not sent any weather packets the latest 10 day(s).
| Time | Temp. | Humidity | Pressure | Rain* | Wind** | Luminosity | Snow |
|---|---|---|---|---|---|---|---|
| 1777401723 | 28.89° C | 64% | 1020.3 hPa | 0 mm | - | 984 W/m² | - |
| 1777401419 | 28.89° C | 64% | 1020.3 hPa | 0 mm | - | 993 W/m² | - |
| 1777401114 | 29.44° C | 61% | 1020.3 hPa | 0 mm | - | 1002 W/m² | - |
| 1777400810 | 28.89° C | 63% | 1020.3 hPa | 0 mm | - | 1008 W/m² | - |
| 1777400507 | 28.89° C | 64% | 1020.2 hPa | 0 mm | - | 1016 W/m² | - |
| 1777400204 | 28.89° C | 64% | 1020.4 hPa | 0 mm | - | 1021 W/m² | - |
| 1777399899 | 29.44° C | 64% | 1020.3 hPa | 0 mm | - | 1028 W/m² | - |
| 1777399597 | 29.44° C | 65% | 1020.5 hPa | 0 mm | - | 1028 W/m² | - |
| 1777399294 | 29.44° C | 63% | 1020.4 hPa | 0 mm | - | 1033 W/m² | - |
| 1777398992 | 29.44° C | 63% | 1020.3 hPa | 0 mm | - | 1025 W/m² | - |
| 1777398689 | 29.44° C | 61% | 1020.3 hPa | 0 mm | - | 1033 W/m² | - |
| 1777398385 | 30° C | 60% | 1020.3 hPa | 0 mm | - | 1042 W/m² | - |
| 1777398082 | 30.56° C | 58% | 1020.7 hPa | 0 mm | - | 1041 W/m² | - |
| 1777397779 | 30° C | 58% | 1020.8 hPa | 0 mm | - | 1048 W/m² | - |
| 1777397474 | 30° C | 57% | 1020.6 hPa | 0 mm | - | 1039 W/m² | - |
| 1777397170 | 30° C | 57% | 1020.6 hPa | 0 mm | - | 1044 W/m² | - |
| 1777396868 | 30° C | 55% | 1020.8 hPa | 0 mm | - | 1040 W/m² | - |
| 1777396564 | 30.56° C | 56% | 1020.7 hPa | 0 mm | - | 1040 W/m² | - |
| 1777396261 | 30° C | 53% | 1020.7 hPa | 0 mm | - | 1039 W/m² | - |
| 1777395956 | 30.56° C | 55% | 1020.6 hPa | 0 mm | - | 1028 W/m² | - |
| 1777395652 | 30.56° C | 55% | 1020.8 hPa | 0 mm | - | 1029 W/m² | - |
| 1777395349 | 30.56° C | 56% | 1021 hPa | 0 mm | - | 1021 W/m² | - |
| 1777395047 | 30.56° C | 55% | 1020.9 hPa | 0 mm | - | 1017 W/m² | - |
| 1777394743 | 30.56° C | 53% | 1021 hPa | 0 mm | - | 1014 W/m² | - |
| 1777394439 | 30.56° C | 54% | 1021.2 hPa | 0 mm | - | 1027 W/m² | - |
* Rain latest hour (hover to see other rain measurements)
** Current wind speed in m/s (hover to see current wind gust speed)